HB9FVK-10 Weather Reports


time (UTC)temp
C
wind
direction
speed
KPH
gust
KPH
rain 1hr
cm
rain 24hr
cm
rain mn
cm
humidity
%
barometer
mb
20260507182101 14 12 6.4 9.7 0.00 0.00 0.00 63 1019.1
20260507181100 15 37 6.4 11.3 0.00 0.00 0.00 61 1019.1
20260507180059 15 29 9.7 14.5 0.00 0.00 0.00 60 1018.9
20260507175057 15 29 9.7 14.5 0.00 0.00 0.00 59 1018.8
20260507174056 15 34 9.7 14.5 0.00 0.00 0.00 58 1018.8
20260507173116 15 25 11.3 16.1 0.00 0.00 0.00 57 1018.8
20260507172054 16 25 14.5 20.9 0.00 0.00 0.00 56 1018.7
20260507171052 16 20 11.3 22.5 0.00 0.00 0.00 55 1018.6
20260507170052 16 36 9.7 16.1 0.00 0.00 0.00 56 1018.5
20260507165051 16 35 8.0 9.7 0.00 0.00 0.00 56 1018.5
20260507164049 16 40 8.0 14.5 0.00 0.00 0.00 55 1018.5
20260507163048 16 43 9.7 17.7 0.00 0.00 0.00 54 1018.5
20260507162047 17 343 6.4 11.3 0.00 0.00 0.00 54 1018.4
20260507161045 17 18 9.7 14.5 0.00 0.00 0.00 55 1018.5
20260507160044 16 0 6.4 12.9 0.00 0.00 0.00 57 1018.4
20260507155103 16 3 8.0 12.9 0.00 0.00 0.00 58 1018.5
20260507154042 16 349 8.0 12.9 0.00 0.00 0.00 55 1018.4
20260507153042 16 30 4.8 8.0 0.00 0.00 0.00 55 1018.4
20260507152040 16 31 6.4 9.7 0.00 0.00 0.00 57 1018.4
20260507151058 16 358 8.0 9.7 0.00 0.00 0.00 57 1018.6
20260507150037 16 15 11.3 16.1 0.00 0.00 0.00 57 1018.5
20260507145056 16 34 11.3 20.9 0.00 0.00 0.00 59 1018.5
20260507144034 16 336 3.2 11.3 0.00 0.00 0.00 58 1018.5
20260507143034 16 12 8.0 14.5 0.00 0.00 0.00 58 1018.5
20260507142032 16 329 6.4 12.9 0.00 0.00 0.00 59 1018.6
20260507141031 15 218 3.2 6.4 0.00 0.00 0.00 60 1018.5
20260507140030 15 48 4.8 9.7 0.00 0.00 0.00 62 1018.7
20260507135109 14 44 4.8 8.0 0.00 0.00 0.00 65 1018.8
20260507134028 13 67 8.0 11.3 0.00 0.00 0.00 68 1018.9
20260507133026 13 48 8.0 11.3 0.00 0.00 0.00 72 1019.0
20260507132046 13 50 9.7 14.5 0.00 0.00 0.00 76 1019.1
20260507131104 12 47 6.4 9.7 0.00 0.00 0.00 85 1019.2
20260507130023 13 330 9.7 24.1 0.00 0.00 0.00 76 1019.2
20260507125022 15 335 6.4 14.5 0.00 0.00 0.00 64 1019.0
20260507124020 15 25 8.0 12.9 0.00 0.00 0.00 63 1018.9
20260507123019 -17 0.0 0.0 0.00 0.00 0.00 1018.9
20260507122039 -17 0.0 0.0 0.00 0.00 0.00 1018.8
20260507121017 -17 0.0 0.0 0.00 0.00 0.00 1018.9
20260507120116 -17 0.0 0.0 0.00 0.00 0.00 1019.0
20260507115115 -17 0.0 0.0 0.00 0.00 0.00 1019.0
20260507114113 -17 0.0 0.0 0.00 0.00 0.00 1019.0
20260507113112 15 56 12.9 17.7 0.00 0.00 0.00 67 1019.2
20260507112111 15 227 3.2 6.4 0.00 0.00 0.00 63 1019.1
20260507111110 15 194 4.8 9.7 0.00 0.00 0.00 61 1019.2
20260507110109 15 179 9.7 11.3 0.00 0.00 0.00 61 1019.1
20260507105128 14 224 4.8 9.7 0.00 0.00 0.00 63 1019.3
20260507104107 13 35 4.8 4.8 0.00 0.00 0.00 66 1019.3
20260507103105 14 205 6.4 12.9 0.00 0.00 0.00 67 1019.3
20260507102105 13 199 4.8 6.4 0.00 0.00 0.00 71 1019.4
20260507101103 13 203 4.8 12.9 0.00 0.00 0.00 71 1019.4
20260507095100 13 19 4.8 9.7 0.00 0.00 0.00 75 1019.5
20260507094120 12 223 8.0 11.3 0.00 0.00 0.00 75 1019.5
20260507093058 12 169 3.2 8.0 0.00 0.00 0.00 78 1019.5
20260507092057 12 230 4.8 8.0 0.00 0.00 0.00 80 1019.6
20260507091056 11 235 3.2 4.8 0.00 0.00 0.00 86 1019.5
20260507090055 11 247 6.4 12.9 0.00 0.00 0.00 84 1019.6
20260507085053 11 298 4.8 9.7 0.00 0.00 0.00 85 1019.5
20260507084052 10 321 4.8 9.7 0.00 0.00 0.00 88 1019.5
20260507083051 10 0.0 6.4 0.00 0.00 0.00 87 1019.5
20260507082051 10 238 3.2 6.4 0.00 0.00 0.00 87 1019.5
20260507081049 10 90 4.8 6.4 0.00 0.00 0.00 91 1019.5
20260507080048 10 126 6.4 9.7 0.00 0.00 0.00 92 1019.4
20260507075046 10 151 4.8 6.4 0.00 0.00 0.00 93 1019.5
20260507074045 -17 0.0 0.0 0.00 0.00 0.00 1019.4
20260507073044 -17 0.0 0.0 0.00 0.00 0.00 1019.3
20260507072103 -17 0.0 0.0 0.00 0.00 0.00 1019.2
20260507071041 -17 0.0 0.0 0.00 0.00 0.00 1019.3
20260507070101 -17 0.0 0.0 0.00 0.00 0.00 1019.2
20260507065039 -17 0.0 0.0 0.00 0.00 0.00 1019.1
20260507064038 8 125 1.6 3.2 0.00 0.00 0.00 95 1019.1
20260507063057 8 131 3.2 6.4 0.00 0.00 0.00 95 1018.9
20260507062037 8 154 3.2 4.8 0.00 0.00 0.00 96 1018.9
20260507061035 8 122 3.2 6.4 0.00 0.00 0.00 95 1018.8
20260507060034 8 162 4.8 8.0 0.00 0.00 0.00 95 1018.7
20260507055033 8 129 8.0 8.0 0.00 0.00 0.00 96 1018.7
20260507054031 8 153 4.8 8.0 0.00 0.00 0.00 96 1018.5
20260507053030 8 147 4.8 8.0 0.00 0.00 0.00 97 1018.4
20260507052030 8 44 3.2 6.4 0.00 0.00 0.00 97 1018.3
20260507051027 8 158 4.8 6.4 0.00 0.00 0.00 97 1018.3
20260507050027 8 146 3.2 4.8 0.00 0.00 0.00 97 1018.3
20260507045026 8 112 4.8 8.0 0.00 0.00 0.00 97 1018.1
20260507044044 7 115 4.8 4.8 0.00 0.00 0.00 97 1017.9
20260507043023 7 154 4.8 6.4 0.00 0.00 0.00 97 1018.0
20260507042022 7 132 4.8 8.0 0.00 0.00 0.00 98 1017.9
20260507041020 7 131 6.4 6.4 0.00 0.00 0.00 98 1017.8
20260507040020 7 131 6.4 6.4 0.00 0.00 0.00 98 1017.7
20260507035018 7 122 4.8 6.4 0.00 0.00 0.00 98 1017.7
20260507034017 7 95 4.8 8.0 0.00 0.00 0.00 98 1017.6
20260507033016 7 134 4.8 6.4 0.00 0.00 0.00 97 1017.5
20260507032115 7 129 4.8 6.4 0.00 0.00 0.00 97 1017.6
20260507031114 7 117 3.2 6.4 0.00 0.00 0.00 97 1017.5
20260507030113 7 138 3.2 6.4 0.00 0.00 0.00 98 1017.5
20260507025231 7 106 3.2 6.4 0.00 0.00 0.00 98 1017.5
20260507024110 7 94 1.6 4.8 0.00 0.00 0.00 98 1017.5
20260507023109 7 159 4.8 6.4 0.00 0.00 0.00 98 1017.4
20260507022108 7 89 3.2 4.8 0.00 0.00 0.00 97 1017.3
20260507021107 7 76 3.2 6.4 0.00 0.00 0.00 97 1017.3
20260507020126 -17 0.0 0.0 0.00 0.00 0.00 1017.4
20260507015124 -17 0.0 0.0 0.00 0.00 0.00 1017.3
20260507014102 6 327 3.2 4.8 0.00 0.00 0.00 97 1017.2
20260507013102 6 97 6.4 9.7 0.00 0.00 0.00 97 1017.2
20260507012100 6 128 1.6 4.8 0.00 0.00 0.00 97 1016.9
20260507011100 6 111 0.0 6.4 0.00 0.00 0.00 97 1017.0
20260507010058 6 140 3.2 4.8 0.00 0.00 0.00 97 1016.9
20260507005057 6 122 3.2 6.4 0.00 0.00 0.00 97 1017.0
20260507004056 6 124 3.2 6.4 0.00 0.00 0.00 97 1016.9
20260507003054 6 147 4.8 6.4 0.00 0.00 0.00 97 1016.9
20260507002134 6 88 1.6 3.2 0.00 0.00 0.00 97 1016.9
20260507001052 6 144 3.2 9.7 0.00 0.00 0.00 97 1016.9
20260507000112 6 142 6.4 9.7 0.00 0.00 0.00 97 1017.0
20260506235051 6 148 6.4 9.7 0.00 0.00 0.00 97 1017.0
20260506234129 6 142 6.4 9.7 0.00 0.00 0.00 97 1017.1
20260506233047 6 148 8.0 9.7 0.00 0.00 0.00 97 1017.0
20260506232046 6 140 4.8 8.0 0.00 0.00 0.00 97 1016.9
20260506231045 6 151 4.8 4.8 0.00 0.00 0.00 97 1016.8
20260506230044 6 152 6.4 6.4 0.00 0.00 0.00 97 1016.7
20260506225043 6 126 4.8 4.8 0.00 0.00 0.00 97 1016.7
20260506224042 6 150 4.8 4.8 0.00 0.00 0.00 97 1016.8
20260506223040 6 151 4.8 4.8 0.00 0.00 0.00 97 1016.7
20260506222039 6 151 4.8 6.4 0.00 0.00 0.00 97 1016.7
20260506221038 6 122 4.8 6.4 0.00 0.00 0.00 96 1016.6
20260506220036 6 86 3.2 4.8 0.00 0.00 0.00 96 1016.7
20260506215035 6 88 1.6 4.8 0.00 0.00 0.00 96 1016.6
20260506214035 7 46 1.6 4.8 0.00 0.00 0.00 95 1016.5
20260506213053 7 163 3.2 6.4 0.00 0.00 0.00 95 1016.5
20260506212032 7 161 8.0 12.9 0.00 0.00 0.00 95 1016.6
20260506211031 7 154 8.0 9.7 0.00 0.00 0.00 96 1016.4
20260506210030 7 149 8.0 9.7 0.00 0.00 0.00 96 1016.2
20260506205029 7 123 4.8 6.4 0.00 0.00 0.00 95 1016.3
20260506204027 7 141 8.0 9.7 0.00 0.00 0.00 95 1016.4
20260506203026 7 144 8.0 11.3 0.00 0.00 0.00 95 1016.3
20260506202025 7 157 9.7 12.9 0.00 0.00 0.00 95 1016.0
20260506201024 7 163 8.0 11.3 0.00 0.00 0.00 95 1015.9
20260506200022 7 131 6.4 8.0 0.00 0.00 0.00 94 1015.8
20260506195021 7 149 6.4 8.0 0.00 0.00 0.00 94 1015.8
20260506194019 8 115 4.8 8.0 0.00 0.00 0.00 93 1015.4
20260506193018 8 153 4.8 8.0 0.00 0.00 0.00 92 1015.3
20260506192037 8 179 6.4 11.3 0.00 0.00 0.00 92 1015.3
20260506191016 8 164 8.0 9.7 0.00 0.00 0.00 92 1015.3
20260506190116 8 164 6.4 8.0 0.00 0.00 0.00 91 1015.2
20260506185114 9 159 6.4 8.0 0.00 0.00 0.00 90 1015.3
20260506184113 9 165 4.8 6.4 0.00 0.00 0.00 89 1015.0
20260506183152 9 164 4.8 8.0 0.00 0.00 0.00 89 1014.8